Location: Bijele Vode
(45.2833°N, 16.2000°E)
Time: 22:27:36
(UTC+00:00)

Cosmos 1125 Rocket - Pass Details

Date: 26 January 2021
Orbit: 757 x 780 km, 74.0° (Epoch: 08 March)

Event Time Altitude Azimuth Distance (km) Brightness Sun altitude
Exits shadow 03:57:19 10° 352° (N) 2,312 5.9 -25.4°
Maximum altitude 04:02:12 39° 61° (ENE) 1,162 4.8 -24.5°
Drops below altitude 10° 04:07:09 10° 130° (SE) 2,330 6.7 -23.7°
Sets 04:09:41 0° 138° (SE) 3,254 7.4 -23.2°
